Temp
22 22 22 22 22 22 22 22 22 22 22 22 22 21 21 21 21 21 21 20 20 20 20 20 20 20 20 20 19 19 19 19 19 19 19 19 19 19 19 19 19 19 19 19 20 20 19 19 19 19 19 19 19 19 19 19 19 19 19 19 19 19 19
22 22 22 22 22 22 22 22 22 22 22 22 22 22 21 21 21 21 21 21 21 21 21 20 20 20 20 20 20 19 19 19 19 19 19 19 19 19 19 19 19 19 19 19 19 19 19 19 19 19 19 19 19 19 19 19 19 19 19 19 19 20 20
21 22 22 22 22 22 22 22 22 22 23 22 22 22 22 22 22 22 21 21 21 21 21 21 21 21 21 20 20 20 20 19 19 19 19 19 19 19 19 19 19 19 19 19 19 19 19 19 19 19 19 19 19 19 19 19 19 19 19 19 19 20 20
22 22 22 23 23 22 22 22 22 22 23 23 22 22 22 22 22 22 22 21 21 21 21 21 21 21 21 21 20 20 20 20 20 20 19 19 19 19 19 19 19 19 19 19 19 19 19 19 19 19 19 19 19 19 19 19 19 19 19 19 19 20 20
22 22 22 22 22 22 22 22 22 22 23 23 23 23 23 23 22 22 22 21 21 21 21 21 21 21 21 21 21 21 21 20 20 20 20 20 19 19 19 19 19 19 19 19 19 19 19 19 19 19 19 19 19 19 19 19 19 19 19 19 19 20 20
21 22 22 22 22 23 23 22 22 23 23 23 23 23 23 22 22 22 22 22 21 21 21 21 21 21 21 21 21 21 21 21 20 20 20 20 20 19 19 19 19 19 19 19 19 19 19 19 19 19 19 19 19 19 19 19 20 20 19 19 20 20 20
22 22 22 22 23 23 23 23 23 23 23 23 23 23 23 22 22 22 22 22 21 21 21 21 21 21 21 21 21 21 21 21 21 20 20 20 20 20 19 19 19 19 19 19 19 19 19 20 20 19 19 19 19 19 19 19 19 19 19 19 20 20 20
22 22 22 23 23 23 23 23 23 23 23 23 22 22 22 22 22 22 22 22 21 21 21 21 21 21 21 21 21 21 21 21 21 20 20 20 20 20 20 20 20 20 19 20 20 19 20 20 20 19 19 19 19 19 19 19 20 19 19 19 20 20 20
22 22 23 23 23 23 23 23 23 23 23 22 22 22 22 22 22 22 22 22 22 22 21 21 21 21 21 21 21 21 21 21 21 20 20 20 20 20 20 20 20 20 20 20 20 19 20 20 19 19 19 19 19 19 19 20 20 20 19 20 20 20 19
21 22 22 23 23 23 23 23 23 23 23 22 22 22 22 22 22 22 22 22 22 22 22 22 22 21 21 21 21 21 21 21 21 21 20 20 20 20 20 20 20 20 20 20 20 19 19 19 19 19 19 19 19 19 19 19 19 19 19 19 19 19 19
21 21 22 22 22 23 23 23 23 23 23 23 23 23 23 22 22 22 22 22 22 22 22 22 22 22 21 21 21 21 21 21 21 21 21 20 20 20 20 20 20 20 20 20 20 19 19 19 19 19 19 19 19 19 19 19 19 19 19 19 19 19 19
20 21 21 22 22 22 22 22 23 23 23 23 23 23 23 23 23 23 22 22 22 22 21 21 21 21 21 21 21 21 21 21 21 21 21 21 20 20 20 20 20 20 20 20 20 20 19 19 19 19 19 19 19 19 19 19 19 19 19 19 19 19 19
19 20 21 21 21 21 21 21 22 22 23 23 23 23 23 23 23 23 23 22 22 22 22 21 21 21 21 21 21 21 21 21 21 21 21 21 21 20 20 20 20 20 20 20 20 20 20 20 19 20 20 19 20 20 20 20 19 19 19 19 19 19 19
17 18 19 19 20 20 20 20 20 21 21 22 23 23 23 23 23 23 23 23 23 23 22 22 22 21 21 21 21 21 21 21 21 21 21 21 21 20 20 20 20 20 20 19 19 20 20 20 20 20 20 20 20 20 20 20 20 20 20 20 20 19 19
17 17 17 18 19 19 19 19 19 20 20 21 21 22 22 22 22 22 22 22 23 23 23 23 22 22 21 21 21 21 21 21 21 21 21 21 21 20 20 20 20 20 19 19 19 19 19 20 20 20 20 20 20 20 20 20 20 20 20 20 20 20 20
17 17 17 17 18 18 19 19 19 19 20 20 20 20 21 21 21 21 21 21 22 22 22 22 22 22 22 21 21 21 21 21 21 21 21 21 20 20 20 20 20 19 19 19 19 19 19 19 19 19 20 20 20 20 20 20 20 20 20 20 20 20 20
16 16 17 17 17 18 18 19 19 19 20 20 20 20 20 20 20 20 20 20 21 21 22 22 21 21 21 21 21 21 21 21 21 21 21 20 20 20 20 20 19 19 19 19 19 19 19 19 19 19 19 20 20 20 20 20 20 20 20 20 20 20 20
16 17 17 17 17 17 18 18 19 19 19 19 19 19 19 19 19 19 20 20 20 20 21 21 21 20 20 20 20 20 20 20 20 20 20 20 20 20 19 19 19 19 19 19 19 19 19 19 19 19 19 19 20 20 20 20 20 20 20 20 20 20 20
17 17 17 17 17 17 17 18 18 18 18 18 18 19 19 19 19 19 19 19 19 19 19 19 19 19 19 19 19 19 20 20 20 20 20 20 20 20 19 19 19 19 19 19 19 19 18 18 19 19 19 19 19 19 20 20 20 20 20 20 20 20 20
16 16 17 17 17 17 17 17 17 17 18 18 18 18 18 19 18 18 18 18 18 18 19 19 19 18 19 19 18 18 19 19 19 19 19 19 19 19 19 19 19 19 19 19 19 18 18 19 19 19 19 19 19 19 19 20 20 20 20 20 20 20 20
17 16 16 16 16 16 16 17 17 17 17 17 17 17 17 18 18 18 18 17 17 17 18 18 18 18 18 19 19 18 18 19 19 19 19 19 19 19 19 19 18 18 18 19 19 19 19 19 19 19 19 19 19 19 19 19 19 19 20 20 20 20 20
16 16 16 16 16 16 16 17 17 17 17 17 16 17 17 17 17 17 17 17 17 17 17 18 18 18 18 18 19 18 19 19 18 18 18 18 19 18 18 18 18 18 18 19 18 18 18 19 18 18 18 19 19 19 18 18 19 19 19 19 19 19 19
15 15 16 16 16 16 16 17 17 17 17 16 16 17 17 17 17 17 17 17 17 17 17 17 18 18 18 18 19 19 19 19 18 18 18 18 18 18 18 18 18 18 18 18 18 18 18 18 18 18 18 18 19 18 18 18 18 18 18 18 19 19 19
15 15 15 15 15 16 16 16 16 16 16 16 16 16 16 16 16 16 17 17 17 17 17 17 17 18 18 18 19 19 19 18 18 18 18 18 17 17 17 17 18 18 18 18 17 18 18 18 18 18 18 18 18 18 18 18 18 18 18 18 18 18 18
15 15 15 15 15 15 16 16 16 16 16 16 16 16 16 16 16 16 16 16 17 17 17 17 17 17 17 18 18 18 18 17 17 17 17 18 17 17 17 17 18 18 18 17 17 18 18 18 18 18 18 18 18 18 18 17 17 17 17 17 17 17 17
15 14 14 14 14 15 15 15 16 16 16 16 16 16 16 16 16 16 16 16 16 16 16 16 16 16 17 17 17 17 17 17 17 17 17 17 17 17 17 17 18 18 17 17 18 18 17 17 18 18 17 17 17 17 17 16 16 16 16 16 16 16 16
15 14 14 14 14 14 14 15 15 15 15 15 15 15 15 15 15 15 15 15 16 16 16 16 15 16 16 16 16 16 16 16 16 16 16 16 17 17 17 17 17 17 16 17 17 17 16 16 17 17 16 16 16 16 16 16 16 15 15 16 16 16 16
15 14 14 14 14 14 14 14 14 15 14 14 14 14 15 15 15 15 15 15 15 15 15 15 15 15 15 15 15 15 15 16 16 16 16 16 16 16 16 16 16 16 16 17 16 16 16 16 16 16 16 15 15 15 15 15 15 15 15 15 15 15 15
15 15 15 15 15 15 15 14 15 15 14 14 14 14 14 15 15 15 15 15 14 14 14 15 14 14 14 14 15 15 15 15 15 15 15 15 15 15 15 15 15 15 15 15 15 15 15 15 15 15 15 15 15 15 15 15 15 15 14 14 14 14 14
14 15 15 15 15 15 15 15 15 15 14 14 13 13 14 14 15 15 15 15 14 13 14 14 14 14 14 14 14 14 14 14 14 14 14 14 14 14 15 15 15 14 14 14 14 14 14 15 15 14 15 15 15 15 15 15 14 14 14 14 14 14 14
14 14 15 15 15 15 16 16 16 15 15 14 14 14 14 14 14 15 15 14 14 14 14 14 13 13 13 14 14 14 14 14 14 14 14 14 14 14 15 15 14 14 14 14 14 14 14 14 14 14 14 14 14 14 14 14 14 14 14 14 14 14 14
14 14 15 15 15 15 15 15 15 15 15 15 14 14 14 14 15 15 14 14 14 14 14 14 14 14 14 14 14 14 14 14 14 14 15 15 15 15 15 15 14 14 14 14 14 14 14 14 14 13 13 13 13 13 14 14 14 14 14 14 14 14 14
13 14 14 15 15 15 15 15 15 15 15 15 15 15 15 15 15 15 15 14 14 15 15 15 15 14 14 14 14 14 14 14 14 14 14 14 14 14 14 14 14 14 14 13 13 13 13 13 13 13 13 13 13 13 13 13 13 13 14 14 14 14 14
14 14 14 14 15 15 15 16 15 15 15 15 15 15 15 15 16 15 15 15 15 15 15 15 15 14 14 14 14 14 14 14 14 14 14 14 14 14 14 14 14 14 14 14 14 14 13 13 13 13 13 13 13 13 13 13 13 13 13 13 14 14 14
14 14 14 14 14 15 15 16 15 15 15 15 15 15 15 15 15 15 15 15 15 15 15 15 15 14 14 14 14 14 14 14 14 14 14 14 14 14 14 14 14 14 14 14 14 14 14 14 13 13 13 13 13 13 12 12 13 13 13 14 14 14 15
14 14 14 14 14 15 15 15 15 15 15 15 15 15 15 15 15 15 15 15 15 15 15 14 14 14 14 14 14 14 14 14 14 14 14 14 14 14 14 14 14 14 14 14 14 14 14 14 13 13 13 13 13 13 13 13 13 13 13 14 14 15 15
15 15 14 14 14 14 15 15 15 15 15 15 15 15 15 15 15 15 15 15 15 14 14 14 14 14 14 14 13 13 13 13 13 13 14 14 14 14 14 14 14 14 14 14 14 14 13 13 13 13 13 13 13 13 13 13 13 13 14 14 14 15 15
14 14 14 14 14 14 14 14 14 14 15 15 14 14 14 14 14 14 14 14 14 14 14 14 14 14 13 13 13 13 13 13 13 13 13 13 13 13 13 13 13 13 13 13 13 13 13 13 13 13 13 13 13 13 13 13 13 13 14 14 14 14 14
Height
1527 1529 1532 1534 1537 1539 1541 1543 1546 1548 1550 1553 1555 1557 1559 1561 1563 1564 1566 1568 1569 1571 1573 1574 1575 1577 1578 1580 1582 1584 1585 1586 1588 1589 1590 1591 1592 1593 1594 1595 1596 1597 1597 1598 1599 1600 1600 1601 1602 1602 1602 1603 1603 1604 1604 1604 1605 1605 1605 1606 1606 1606 1606
1524 1527 1530 1532 1535 1537 1539 1542 1544 1546 1549 1551 1553 1555 1557 1559 1561 1563 1564 1566 1568 1569 1571 1572 1574 1575 1577 1579 1581 1582 1584 1585 1586 1587 1588 1589 1591 1592 1593 1594 1595 1596 1597 1597 1598 1599 1600 1600 1600 1601 1602 1602 1602 1603 1603 1603 1604 1604 1604 1605 1605 1605 1605
1522 1524 1527 1530 1532 1534 1537 1540 1542 1545 1547 1549 1552 1554 1556 1557 1559 1561 1562 1564 1566 1568 1569 1571 1572 1574 1576 1578 1579 1581 1582 1584 1585 1586 1587 1588 1590 1591 1592 1593 1594 1595 1596 1596 1597 1598 1598 1599 1599 1600 1600 1601 1601 1602 1602 1602 1602 1603 1603 1603 1603 1604 1604
1519 1521 1524 1527 1529 1532 1535 1538 1540 1543 1545 1547 1550 1552 1554 1556 1557 1559 1561 1562 1564 1566 1567 1569 1571 1573 1575 1576 1578 1579 1581 1582 1584 1585 1586 1588 1589 1590 1591 1592 1593 1594 1595 1595 1596 1597 1597 1598 1598 1599 1599 1600 1600 1601 1601 1601 1601 1602 1602 1602 1602 1602 1603
1517 1519 1522 1524 1527 1531 1533 1535 1538 1540 1543 1545 1548 1550 1552 1554 1556 1558 1560 1561 1563 1565 1567 1569 1570 1572 1573 1575 1576 1578 1579 1581 1582 1584 1585 1587 1588 1589 1590 1591 1592 1593 1594 1594 1595 1596 1596 1597 1597 1598 1598 1599 1599 1600 1600 1600 1600 1601 1601 1601 1601 1601 1602
1514 1516 1519 1522 1525 1528 1530 1533 1535 1537 1540 1543 1545 1548 1550 1553 1555 1556 1558 1560 1562 1564 1566 1567 1569 1570 1572 1573 1575 1576 1578 1579 1581 1582 1584 1585 1587 1588 1589 1590 1591 1591 1592 1593 1594 1595 1595 1596 1596 1597 1597 1598 1598 1598 1599 1599 1599 1599 1599 1600 1600 1601 1601
1511 1513 1516 1519 1522 1525 1528 1530 1533 1535 1538 1541 1543 1546 1548 1551 1553 1555 1557 1559 1561 1562 1564 1566 1568 1569 1571 1572 1574 1575 1576 1578 1579 1581 1582 1584 1585 1586 1587 1588 1589 1590 1591 1592 1593 1593 1594 1595 1595 1596 1596 1597 1597 1597 1597 1598 1598 1598 1598 1599 1599 1599 1600
1508 1511 1514 1517 1520 1523 1525 1528 1530 1533 1536 1539 1541 1544 1546 1548 1551 1553 1555 1557 1559 1561 1562 1564 1566 1568 1569 1571 1572 1574 1575 1577 1578 1580 1581 1582 1583 1584 1585 1587 1587 1589 1590 1591 1592 1592 1593 1594 1594 1595 1595 1595 1596 1596 1596 1596 1597 1597 1597 1597 1598 1598 1598
1507 1509 1512 1515 1518 1520 1523 1525 1528 1531 1533 1536 1539 1541 1544 1546 1548 1551 1553 1556 1558 1559 1561 1563 1565 1566 1568 1569 1571 1572 1574 1576 1577 1578 1579 1580 1581 1582 1583 1585 1586 1587 1588 1589 1590 1591 1592 1593 1593 1594 1594 1594 1595 1595 1595 1596 1596 1596 1596 1596 1597 1597 1597
1505 1508 1510 1512 1515 1517 1520 1523 1525 1528 1530 1533 1535 1538 1541 1543 1546 1549 1551 1554 1556 1557 1559 1561 1563 1565 1566 1567 1569 1571 1572 1574 1575 1577 1578 1579 1580 1581 1582 1583 1584 1586 1587 1588 1589 1590 1591 1592 1592 1593 1593 1593 1594 1594 1595 1595 1595 1595 1596 1596 1596 1596 1596
1505 1507 1509 1511 1513 1516 1518 1520 1522 1524 1527 1529 1532 1534 1537 1540 1543 1545 1548 1551 1553 1555 1558 1559 1561 1563 1564 1566 1567 1569 1570 1572 1574 1575 1576 1577 1578 1579 1581 1582 1583 1584 1585 1586 1587 1588 1589 1590 1591 1592 1592 1593 1593 1593 1594 1594 1595 1595 1595 1595 1595 1595 1595
1506 1506 1508 1510 1512 1514 1516 1518 1520 1522 1524 1526 1529 1531 1534 1536 1539 1541 1545 1547 1550 1553 1555 1557 1559 1561 1562 1564 1565 1567 1569 1570 1572 1573 1574 1576 1577 1578 1579 1580 1582 1583 1584 1585 1586 1587 1588 1589 1590 1590 1591 1592 1592 1593 1593 1593 1594 1594 1594 1595 1595 1595 1595
1507 1507 1508 1510 1512 1514 1516 1517 1519 1520 1522 1524 1526 1528 1531 1533 1535 1538 1541 1544 1547 1550 1552 1554 1557 1559 1561 1562 1564 1565 1566 1568 1570 1571 1573 1574 1576 1577 1578 1579 1580 1581 1583 1584 1584 1585 1586 1587 1589 1589 1590 1591 1591 1592 1592 1592 1593 1593 1593 1594 1594 1594 1594
1509 1509 1509 1510 1512 1514 1516 1517 1519 1520 1521 1523 1524 1526 1528 1531 1533 1535 1538 1541 1544 1547 1549 1551 1554 1556 1558 1560 1561 1563 1564 1566 1568 1569 1571 1573 1574 1575 1576 1578 1579 1580 1581 1582 1583 1584 1585 1586 1587 1588 1589 1589 1590 1590 1591 1591 1591 1592 1592 1592 1593 1593 1593
1509 1510 1511 1511 1512 1514 1515 1516 1518 1519 1521 1522 1523 1524 1526 1528 1531 1534 1536 1538 1541 1544 1546 1548 1551 1553 1556 1558 1559 1560 1562 1564 1566 1567 1569 1570 1572 1573 1574 1576 1577 1579 1580 1581 1582 1583 1584 1585 1586 1586 1587 1588 1588 1589 1589 1589 1590 1590 1590 1591 1591 1591 1591
1509 1512 1513 1512 1512 1513 1514 1516 1517 1518 1520 1521 1523 1524 1525 1527 1530 1532 1535 1537 1539 1542 1544 1546 1548 1551 1553 1555 1557 1559 1560 1562 1564 1566 1567 1568 1570 1571 1573 1574 1575 1577 1578 1580 1581 1582 1582 1583 1584 1585 1586 1586 1587 1587 1588 1588 1588 1588 1589 1589 1589 1589 1589
1510 1512 1514 1513 1513 1513 1514 1515 1516 1517 1519 1520 1522 1523 1524 1526 1529 1531 1534 1536 1538 1540 1542 1544 1546 1548 1551 1553 1555 1557 1558 1560 1562 1564 1565 1567 1568 1570 1571 1572 1573 1575 1576 1578 1579 1580 1581 1582 1583 1583 1584 1584 1585 1585 1586 1586 1586 1586 1587 1587 1587 1587 1587
1511 1512 1513 1513 1512 1512 1513 1514 1515 1516 1518 1520 1521 1522 1524 1526 1528 1530 1533 1535 1537 1539 1541 1543 1545 1546 1548 1551 1553 1554 1556 1558 1559 1561 1563 1565 1566 1568 1569 1571 1572 1573 1574 1576 1577 1578 1579 1580 1581 1581 1582 1583 1583 1584 1584 1584 1584 1584 1584 1584 1584 1585 1584
1510 1511 1511 1511 1511 1511 1513 1514 1515 1516 1517 1519 1520 1522 1523 1525 1527 1528 1530 1531 1533 1536 1539 1542 1543 1544 1547 1551 1553 1553 1554 1556 1557 1559 1561 1563 1564 1566 1567 1569 1570 1571 1572 1573 1573 1574 1575 1576 1578 1579 1580 1581 1581 1582 1582 1582 1582 1582 1582 1582 1582 1582 1582
1508 1509 1509 1509 1509 1510 1512 1513 1515 1515 1516 1517 1518 1519 1521 1523 1524 1526 1527 1528 1531 1533 1536 1540 1542 1543 1546 1549 1551 1551 1552 1554 1556 1557 1559 1561 1562 1563 1565 1566 1567 1567 1568 1569 1570 1571 1572 1574 1575 1577 1578 1579 1579 1580 1580 1580 1580 1580 1580 1579 1579 1579 1579
1508 1508 1508 1509 1509 1510 1512 1513 1514 1515 1515 1516 1517 1518 1520 1521 1523 1524 1525 1526 1528 1531 1534 1538 1541 1543 1545 1547 1549 1550 1551 1553 1554 1556 1558 1559 1560 1561 1562 1563 1563 1563 1565 1568 1569 1570 1571 1573 1573 1574 1575 1576 1577 1577 1578 1577 1577 1577 1577 1577 1577 1577 1576
1509 1509 1509 1510 1511 1511 1512 1513 1514 1515 1515 1516 1517 1518 1520 1521 1522 1524 1525 1525 1527 1530 1533 1536 1539 1543 1545 1545 1547 1548 1549 1551 1553 1554 1555 1557 1558 1559 1559 1560 1560 1563 1566 1569 1568 1568 1570 1571 1571 1572 1573 1574 1574 1575 1575 1575 1574 1574 1574 1574 1574 1574 1574
1511 1511 1512 1513 1513 1513 1514 1515 1516 1516 1516 1516 1517 1518 1520 1521 1521 1523 1524 1525 1527 1530 1533 1536 1538 1541 1544 1545 1546 1547 1548 1550 1551 1553 1554 1556 1556 1556 1556 1557 1560 1563 1566 1567 1566 1566 1569 1569 1570 1571 1572 1571 1571 1571 1571 1571 1571 1571 1571 1571 1571 1570 1570
1513 1514 1515 1515 1516 1516 1517 1517 1518 1518 1519 1519 1519 1520 1520 1520 1520 1522 1523 1524 1526 1529 1532 1535 1538 1540 1543 1544 1545 1546 1547 1548 1550 1552 1554 1555 1555 1555 1555 1557 1559 1561 1562 1562 1562 1564 1566 1567 1567 1568 1568 1568 1568 1567 1567 1567 1567 1567 1568 1567 1567 1567 1567
1516 1516 1517 1517 1518 1519 1520 1520 1521 1522 1522 1522 1522 1523 1522 1522 1521 1522 1523 1524 1527 1530 1532 1535 1538 1539 1541 1543 1544 1545 1546 1547 1549 1551 1552 1553 1553 1554 1555 1556 1558 1558 1558 1559 1561 1562 1563 1564 1564 1564 1564 1564 1564 1564 1564 1564 1564 1564 1564 1563 1563 1563 1563
1518 1519 1519 1519 1520 1521 1521 1523 1524 1524 1524 1524 1525 1525 1525 1524 1523 1523 1525 1527 1529 1532 1534 1536 1537 1538 1540 1542 1543 1544 1546 1547 1548 1550 1551 1552 1553 1553 1553 1554 1556 1556 1556 1557 1558 1559 1559 1560 1560 1560 1560 1560 1560 1561 1561 1561 1561 1561 1560 1560 1559 1559 1558
1520 1521 1522 1522 1523 1523 1523 1524 1526 1526 1526 1526 1527 1527 1527 1527 1526 1527 1530 1531 1532 1534 1536 1537 1538 1539 1540 1541 1542 1544 1546 1547 1548 1550 1550 1551 1552 1552 1552 1552 1554 1554 1555 1555 1556 1556 1557 1557 1557 1557 1557 1558 1558 1559 1559 1558 1558 1558 1557 1557 1556 1555 1555
1522 1523 1524 1525 1526 1526 1526 1526 1527 1528 1528 1529 1529 1529 1530 1530 1529 1529 1531 1532 1533 1535 1536 1537 1538 1539 1540 1541 1542 1544 1545 1547 1548 1549 1550 1551 1551 1551 1551 1551 1552 1553 1554 1554 1554 1554 1555 1556 1555 1556 1557 1557 1557 1557 1557 1557 1556 1556 1555 1554 1554 1553 1552
1524 1525 1526 1527 1528 1528 1529 1529 1529 1529 1530 1531 1532 1532 1532 1532 1531 1531 1532 1533 1535 1536 1537 1537 1539 1540 1541 1541 1542 1543 1545 1546 1548 1549 1550 1551 1551 1551 1551 1551 1551 1552 1553 1554 1554 1554 1554 1555 1555 1556 1557 1556 1556 1556 1556 1556 1556 1555 1555 1554 1553 1553 1552
1527 1528 1528 1529 1529 1530 1531 1531 1531 1531 1532 1533 1534 1534 1535 1534 1534 1534 1534 1535 1537 1539 1539 1539 1541 1543 1543 1543 1543 1544 1545 1547 1548 1550 1550 1551 1551 1551 1551 1551 1552 1552 1553 1554 1554 1554 1555 1555 1556 1556 1556 1555 1555 1555 1555 1555 1555 1555 1555 1554 1553 1553 1552
1529 1530 1530 1531 1531 1532 1533 1533 1533 1534 1534 1535 1536 1536 1537 1537 1537 1537 1538 1539 1540 1541 1542 1542 1544 1545 1545 1545 1545 1546 1547 1548 1549 1550 1550 1551 1552 1551 1551 1552 1552 1553 1554 1554 1555 1556 1556 1556 1556 1556 1556 1555 1555 1555 1555 1555 1555 1555 1554 1554 1553 1553 1552
1532 1532 1532 1533 1533 1534 1535 1536 1536 1537 1536 1537 1538 1538 1539 1540 1540 1540 1541 1542 1543 1544 1545 1546 1546 1546 1547 1547 1547 1548 1549 1550 1551 1551 1552 1552 1552 1552 1552 1553 1554 1554 1555 1555 1556 1556 1557 1557 1556 1556 1556 1556 1555 1555 1555 1555 1555 1554 1554 1553 1553 1552 1551
1533 1533 1534 1535 1535 1536 1538 1538 1539 1539 1539 1539 1540 1541 1541 1542 1543 1543 1544 1545 1546 1547 1547 1548 1548 1548 1549 1549 1549 1550 1551 1551 1552 1553 1553 1553 1553 1553 1553 1554 1555 1555 1555 1556 1556 1557 1557 1557 1557 1557 1557 1556 1556 1555 1555 1555 1555 1554 1553 1553 1552 1551 1550
1535 1535 1536 1537 1538 1539 1540 1540 1541 1542 1542 1542 1543 1544 1544 1545 1545 1546 1547 1547 1548 1549 1549 1550 1550 1551 1551 1552 1552 1552 1553 1553 1553 1553 1554 1554 1554 1554 1555 1555 1555 1556 1556 1556 1557 1557 1557 1557 1557 1557 1557 1556 1556 1555 1554 1554 1554 1554 1553 1552 1551 1550 1549
1537 1538 1538 1539 1540 1541 1542 1542 1543 1543 1544 1545 1545 1546 1547 1548 1548 1549 1549 1550 1550 1551 1551 1552 1552 1553 1553 1554 1554 1554 1555 1555 1555 1555 1555 1555 1556 1556 1556 1556 1556 1557 1557 1557 1557 1557 1557 1557 1556 1556 1556 1556 1555 1554 1554 1553 1553 1552 1552 1550 1549 1548 1547
1540 1540 1541 1542 1543 1544 1544 1545 1545 1546 1546 1547 1548 1549 1550 1550 1551 1552 1552 1553 1553 1553 1553 1554 1554 1555 1555 1555 1556 1556 1556 1556 1556 1556 1557 1557 1557 1557 1557 1557 1557 1557 1557 1556 1556 1556 1556 1556 1555 1555 1555 1554 1554 1553 1553 1552 1551 1551 1550 1549 1548 1547 1546
1542 1543 1544 1545 1546 1546 1547 1547 1548 1548 1549 1549 1550 1551 1551 1552 1553 1554 1554 1555 1555 1556 1556 1556 1556 1557 1557 1557 1557 1557 1557 1558 1558 1557 1557 1557 1557 1557 1557 1557 1557 1557 1556 1556 1556 1556 1555 1555 1555 1554 1554 1553 1553 1552 1551 1551 1550 1549 1549 1548 1547 1546 1545
1544 1545 1546 1547 1548 1549 1549 1550 1550 1551 1551 1552 1553 1553 1553 1554 1554 1555 1555 1556 1556 1557 1557 1557 1558 1558 1558 1558 1558 1558 1559 1559 1558 1558 1558 1558 1558 1557 1557 1557 1557 1556 1556 1556 1556 1555 1555 1555 1554 1554 1553 1553 1552 1551 1550 1550 1549 1548 1548 1547 1546 1545 1544
Wind_Speed
30 31 34 36 37 37 38 37 35 34 33 32 30 28 26 26 25 24 23 22 22 22 21 20 21 22 22 22 21 21 20 19 18 17 16 15 15 14 14 14 14 14 13 11 10 9 9 10 10 10 10 9 10 9 9 9 9 9 9 10 10 9 9
30 31 33 36 37 37 38 38 36 36 34 33 32 29 28 27 26 25 24 23 22 22 21 22 22 22 22 21 21 20 19 19 18 17 16 16 15 14 14 14 13 13 12 11 9 9 9 9 10 11 10 10 10 10 10 10 9 9 10 10 10 10 10
30 33 34 36 38 39 39 38 38 37 36 34 33 32 30 28 25 24 25 24 23 23 22 23 23 23 22 21 21 21 20 19 18 17 16 15 15 14 14 15 14 12 11 10 10 9 9 9 10 10 10 10 10 10 10 11 11 10 10 11 10 10 10
32 34 36 37 38 39 40 39 39 39 37 35 34 32 30 28 26 24 24 25 24 24 24 24 24 23 22 22 21 21 20 19 19 18 17 15 15 15 15 15 15 13 12 11 11 11 10 10 10 10 10 10 10 11 11 11 11 10 10 10 10 10 9
32 34 35 36 37 38 40 40 40 40 39 37 35 34 31 29 27 26 24 24 24 24 24 24 25 24 23 22 22 21 21 20 19 19 18 16 15 16 16 15 15 13 12 12 12 12 12 12 12 11 10 10 11 11 11 11 11 10 10 10 10 10 9
32 33 34 35 36 37 39 41 42 41 40 39 37 35 33 32 30 28 25 24 24 24 24 24 24 23 22 22 22 22 21 20 20 19 18 17 16 16 15 15 15 14 13 13 13 12 12 12 12 11 10 10 10 11 11 11 10 9 9 9 10 10 10
32 33 34 34 35 36 38 40 41 42 41 40 38 37 35 34 32 30 27 25 23 23 24 24 24 23 21 21 21 21 21 21 20 19 18 17 16 16 15 14 14 14 14 14 13 12 12 11 11 10 10 10 10 10 11 11 10 9 9 9 9 9 9
33 33 34 34 34 35 36 38 40 41 42 41 40 39 38 37 34 32 29 26 23 23 23 23 23 21 20 20 20 21 21 21 20 19 18 17 17 17 16 15 14 14 14 14 14 13 13 12 10 9 9 10 10 10 10 10 10 10 10 10 9 9 8
31 33 34 34 34 34 35 37 39 41 42 42 42 41 39 38 37 35 31 28 25 24 23 22 21 21 19 19 20 20 20 20 20 19 19 18 18 18 17 16 15 15 15 15 14 14 13 12 11 10 10 10 10 10 10 10 10 10 10 10 9 8 8
27 30 32 34 35 35 35 36 39 41 43 43 42 41 41 40 38 37 34 31 29 26 23 22 21 21 21 20 20 20 21 21 20 20 20 19 19 19 18 17 16 16 16 15 14 14 13 13 11 11 11 10 10 9 9 9 9 10 10 9 8 8 8
25 27 30 32 34 35 35 36 38 40 42 42 42 42 41 41 40 39 37 35 33 30 27 25 23 22 21 20 20 21 22 21 21 21 21 20 19 19 19 18 17 17 16 15 14 14 13 13 13 12 11 11 10 10 10 9 9 10 10 9 8 8 8
23 26 28 30 32 34 35 36 37 39 40 41 41 41 41 42 41 40 39 37 35 33 32 30 27 25 23 22 21 21 22 22 22 22 22 21 20 19 19 19 18 18 17 16 15 15 15 15 14 13 12 12 11 11 10 10 10 10 10 10 9 9 9
16 20 23 25 27 30 32 33 35 37 38 39 40 40 41 41 42 42 41 39 37 34 33 32 31 29 25 23 22 22 23 22 22 22 22 22 20 20 19 19 19 19 18 17 16 16 16 16 16 15 13 13 13 12 12 11 11 11 11 11 11 11 11
8 12 16 19 21 25 27 29 32 34 36 38 39 40 40 41 42 43 42 41 38 35 33 31 31 31 28 24 22 22 23 22 21 21 22 22 21 20 20 19 19 19 19 18 17 17 17 17 17 16 15 15 15 14 14 14 13 13 13 13 12 13 13
6 7 11 15 19 22 24 26 29 31 33 36 37 38 39 40 41 42 43 42 40 38 34 31 31 31 29 26 24 22 22 22 21 21 22 22 22 21 20 20 19 19 20 19 18 18 17 17 17 17 17 16 16 15 15 16 15 15 15 15 15 14 14
10 7 9 13 17 20 22 23 25 28 31 33 34 35 36 37 38 40 41 42 41 39 36 33 33 31 29 28 24 22 22 23 22 22 22 22 21 21 20 20 19 20 21 21 20 19 18 17 18 18 18 18 17 17 17 17 17 16 17 17 18 18 17
10 9 9 10 12 16 19 21 23 26 29 31 32 32 33 34 35 35 36 38 39 39 37 35 34 33 32 30 25 23 23 23 23 22 21 21 21 20 20 19 18 19 21 22 21 20 19 19 19 19 19 19 18 18 19 19 19 19 19 19 20 20 20
9 8 8 7 8 11 14 17 20 22 24 27 28 29 30 31 32 33 34 35 35 35 35 33 33 34 33 30 25 23 23 23 23 23 21 20 20 20 19 18 17 17 18 20 21 21 20 20 20 20 19 19 19 19 19 20 21 22 22 21 21 20 21
8 7 5 5 5 7 10 12 15 17 18 20 22 24 26 28 29 31 34 36 36 36 34 32 33 34 31 26 23 22 22 22 23 23 22 21 20 20 20 19 19 18 18 20 22 22 22 22 21 21 22 22 22 22 21 21 21 22 23 23 22 22 22
4 4 5 6 7 7 7 8 9 11 14 17 19 21 23 26 28 30 31 33 35 36 35 34 34 31 27 25 24 23 22 21 22 23 23 22 22 22 22 21 22 22 23 24 24 23 23 22 22 23 23 23 24 24 24 24 23 23 23 24 24 23 23
4 5 7 8 7 6 5 4 4 6 10 14 17 19 21 23 25 27 30 31 32 34 34 34 33 29 26 25 24 23 22 22 22 23 23 24 24 24 23 23 23 23 24 25 24 23 22 22 22 23 23 23 23 22 22 22 23 23 24 24 25 24 24
6 6 7 6 5 5 5 4 3 3 7 10 13 16 19 20 20 22 25 27 29 31 31 32 32 28 26 24 22 21 22 22 22 23 23 24 24 24 24 24 22 20 19 20 21 21 20 20 20 20 22 24 25 24 23 23 23 23 24 24 25 25 25
8 7 8 6 5 6 7 6 4 4 6 10 12 13 16 19 20 19 18 19 22 25 27 29 29 27 23 21 20 19 20 21 22 22 21 20 22 23 24 23 21 18 18 19 21 21 21 21 21 22 23 25 26 27 26 26 26 26 26 26 26 27 26
12 11 11 9 8 9 10 9 9 9 8 9 10 11 13 16 18 18 17 16 17 19 21 23 24 23 21 19 19 19 20 20 21 20 20 20 21 21 19 18 17 17 17 17 17 18 20 22 23 24 25 27 27 28 28 28 28 28 29 29 28 28 27
13 12 12 11 10 11 12 12 12 11 11 11 10 10 9 10 13 16 18 18 17 18 19 20 22 22 21 20 19 19 20 18 16 16 16 18 18 17 16 15 15 16 16 16 17 17 19 21 22 24 25 25 25 27 28 28 28 28 28 29 29 29 29
14 14 14 14 13 13 13 12 10 10 11 12 12 11 8 8 10 13 15 16 16 16 16 16 16 16 17 16 15 15 15 14 12 10 10 12 14 15 15 14 14 14 14 14 16 18 19 19 21 22 22 21 22 23 24 25 25 26 27 27 28 29 29
15 15 16 16 15 14 14 14 12 11 13 13 12 11 8 6 7 11 14 15 14 14 13 11 10 10 11 9 8 8 8 8 7 7 6 7 8 9 10 9 8 8 7 7 9 10 10 11 13 14 14 15 15 15 15 16 16 17 18 19 20 21 23
15 15 15 16 15 15 16 17 16 16 16 15 13 12 9 6 7 11 13 13 14 14 11 9 7 8 8 7 6 6 5 3 2 1 1 1 2 3 3 4 4 4 3 2 4 4 3 3 5 5 5 5 6 6 7 7 8 10 10 11 12 13 14
16 16 15 15 15 15 16 18 19 19 18 17 15 13 11 10 11 12 12 13 14 14 11 10 8 8 8 7 7 7 6 6 6 5 5 5 4 4 4 4 4 3 3 1 1 2 3 3 4 4 4 4 5 5 6 7 7 8 9 9 10 11 11
18 18 17 17 16 15 15 17 19 20 19 18 17 15 13 13 14 15 14 15 14 12 10 10 9 7 8 9 9 10 9 9 9 8 7 6 6 6 6 6 6 5 5 3 2 2 4 4 5 6 5 6 6 7 8 8 8 8 8 9 9 10 11
19 19 19 18 18 16 16 17 18 19 20 19 18 17 16 15 15 16 17 16 14 11 10 10 8 8 9 10 10 11 10 9 8 7 7 7 7 7 7 7 7 6 5 4 3 3 4 5 6 6 6 5 6 7 8 8 9 9 8 8 9 10 11
18 18 19 19 18 17 16 17 17 18 19 19 17 16 15 14 14 17 17 16 14 12 11 10 9 9 10 10 11 11 10 9 8 8 8 8 7 7 7 7 6 6 5 4 3 4 4 5 6 6 5 5 5 6 7 8 9 9 8 9 9 10 11
17 17 18 18 18 17 16 16 17 17 18 18 17 15 14 13 14 15 15 14 13 12 11 11 10 10 10 10 11 11 10 9 9 8 8 8 8 8 7 7 7 6 5 5 5 5 5 5 4 4 4 5 7 7 8 9 9 9 10 10 11 11 12
17 18 19 19 18 18 17 17 17 17 18 18 17 16 15 14 15 15 14 14 13 13 12 11 11 11 11 10 10 10 10 9 9 9 9 8 8 8 8 7 7 7 6 6 6 6 6 6 6 5 5 7 9 11 11 11 11 11 12 13 14 15 15
19 20 21 20 19 18 18 18 18 17 18 18 17 16 15 15 15 15 14 14 14 13 13 12 12 11 10 10 9 9 9 9 9 9 9 9 8 8 7 7 7 7 7 8 8 8 7 8 8 8 8 9 11 12 13 13 13 14 15 17 17 17 17
19 20 20 19 18 17 17 18 18 18 18 19 18 16 15 14 14 13 12 12 12 12 12 12 11 10 10 10 10 10 10 10 10 10 10 10 10 9 8 7 7 7 7 8 8 9 9 9 9 10 11 11 12 13 14 15 16 16 17 17 16 16 15
17 18 18 17 16 15 15 16 16 16 17 17 17 16 15 13 13 12 11 11 10 10 10 9 9 9 10 10 11 11 11 12 12 12 12 11 10 10 9 9 8 8 8 8 7 8 9 9 9 10 10 11 11 13 14 15 15 15 15 14 13 12 12
13 14 15 15 15 15 15 14 14 14 14 14 14 14 13 12 12 11 10 10 9 9 9 9 9 9 9 10 11 11 11 12 12 12 12 12 11 11 10 9 9 8 8 8 7 7 8 9 9 9 9 10 10 11 12 12 13 13 13 12 11 10 10
Wind_Direction
202 204 205 204 204 205 207 208 209 210 212 213 213 214 214 214 214 213 212 213 216 217 218 220 222 221 221 221 222 226 230 231 231 234 236 237 239 241 240 240 239 236 235 238 239 237 237 235 236 242 242 242 244 244 243 242 240 242 244 243 245 246 243
202 204 206 206 205 206 208 210 211 212 214 215 215 215 215 216 216 216 216 216 218 220 220 221 221 220 221 222 224 227 229 230 232 235 235 234 236 240 241 241 239 237 237 240 241 240 239 234 235 242 243 243 246 245 245 242 238 239 243 244 245 244 239
203 204 206 208 208 208 209 210 211 213 215 216 216 217 217 218 218 217 217 218 219 221 221 221 220 221 222 222 225 227 227 230 232 234 232 231 233 238 241 241 238 237 239 241 241 241 241 238 238 241 243 244 244 244 245 242 241 246 247 245 246 246 247
203 206 207 209 210 210 211 211 212 214 216 218 219 219 220 219 219 219 219 220 220 220 220 220 220 220 221 223 225 227 227 228 230 232 231 230 234 238 239 239 236 236 239 240 241 242 242 241 240 241 243 242 239 240 244 244 245 250 250 247 246 249 252
202 206 207 208 208 210 211 212 214 215 217 219 221 222 223 222 221 220 221 223 224 223 221 220 220 220 222 224 226 227 228 228 228 230 231 232 235 238 238 237 235 237 241 241 241 242 241 239 239 239 239 240 239 240 243 246 248 249 248 249 250 252 252
201 203 205 206 207 210 212 214 216 218 219 220 221 223 224 225 224 222 222 224 224 224 222 220 219 219 221 223 225 228 228 228 227 227 229 232 234 237 240 240 238 241 245 242 240 240 240 237 236 235 234 238 242 243 245 249 251 249 248 250 252 253 253
202 202 204 207 209 211 214 216 218 219 221 222 222 224 225 225 226 225 224 224 223 221 219 217 217 218 221 223 225 228 229 228 227 226 225 227 231 234 239 241 239 242 245 242 237 236 237 236 233 232 234 238 240 242 244 247 248 248 249 250 250 250 252
203 204 205 207 211 214 215 216 218 219 220 221 221 222 224 226 227 226 225 223 221 219 217 216 217 218 221 223 226 228 230 230 228 227 226 225 227 230 235 237 236 237 239 237 234 233 235 234 233 236 240 239 239 240 241 242 244 244 247 250 250 250 253
204 205 207 208 211 215 217 217 218 218 218 219 220 222 223 224 226 227 226 223 220 218 216 216 217 220 222 224 226 227 229 231 230 229 229 227 226 228 232 233 233 233 233 233 232 232 234 234 236 240 242 240 240 241 240 243 243 239 242 246 249 250 251
202 205 207 209 211 213 216 217 216 216 217 218 219 221 223 223 225 226 226 225 224 220 217 216 217 222 225 227 228 228 228 229 229 229 230 230 230 230 230 230 230 231 231 232 233 233 234 233 232 235 238 239 240 241 243 246 242 237 239 244 246 247 250
201 207 207 208 209 210 211 213 214 215 216 218 219 220 223 224 225 226 226 225 226 224 222 220 220 223 227 230 230 229 227 228 229 229 230 231 232 233 232 232 231 230 231 232 233 234 234 231 229 231 235 238 240 244 246 245 241 238 242 249 251 251 254
196 202 204 206 207 208 210 211 212 214 215 217 219 220 222 224 225 226 225 225 226 226 225 225 225 225 228 231 232 229 227 227 228 228 229 231 233 234 235 235 234 233 232 232 232 233 233 230 228 231 237 241 244 247 249 246 243 244 249 255 258 261 264
195 198 200 203 205 207 209 211 212 214 216 217 219 220 222 224 225 225 224 224 225 226 226 227 228 228 228 230 231 229 226 226 227 227 229 230 232 234 236 237 237 236 234 232 232 232 232 231 231 234 239 244 246 248 251 251 250 252 255 259 262 267 271
204 203 200 200 202 205 207 209 210 211 213 217 219 220 222 223 226 226 225 225 225 226 225 226 227 228 227 227 228 227 224 224 226 227 228 230 231 234 236 237 238 238 234 232 233 233 232 233 235 239 244 247 248 250 253 254 256 259 262 264 267 270 274
215 224 216 206 203 205 206 207 208 208 210 214 216 218 220 222 224 225 225 226 226 226 226 224 224 224 225 226 226 224 222 223 225 226 227 229 231 233 235 236 237 237 233 231 234 236 235 236 240 246 250 252 254 256 256 256 258 261 265 269 271 272 275
210 223 231 218 207 208 209 209 211 211 211 213 214 217 220 222 223 224 226 227 227 228 228 227 226 223 221 224 225 224 222 222 224 226 227 229 230 232 234 234 234 235 234 235 237 238 239 241 245 251 256 259 261 262 261 259 259 261 265 270 272 272 273
197 206 220 219 209 210 213 215 216 217 218 219 220 222 224 225 225 225 226 228 228 228 228 229 229 225 221 221 223 222 223 223 223 226 227 228 230 231 231 231 231 233 236 238 240 240 242 245 249 255 262 266 268 268 266 263 261 262 265 270 271 269 269
168 188 205 209 206 208 213 218 221 223 225 226 226 227 228 229 229 228 228 228 228 228 226 227 230 228 223 221 223 224 224 224 223 223 223 225 226 228 229 230 231 233 236 239 240 242 246 249 254 260 266 270 272 272 272 270 267 265 266 269 269 266 265
145 160 176 187 198 204 206 214 222 226 228 229 229 232 234 236 235 234 231 229 228 228 227 226 227 226 221 220 228 231 227 225 223 220 221 223 224 226 228 231 234 236 239 240 239 241 245 246 250 256 261 264 267 269 271 272 272 271 269 268 267 264 263
128 142 160 180 194 200 200 201 209 221 227 229 231 234 237 239 238 237 235 232 229 228 228 227 226 224 218 218 228 234 231 228 226 223 226 230 230 230 233 237 241 241 240 241 243 245 248 251 254 257 258 261 264 265 267 268 268 269 269 268 267 265 263
147 151 153 168 185 195 203 202 203 221 228 228 229 231 232 232 233 232 231 228 225 223 222 221 221 221 219 218 226 234 232 229 230 232 235 238 239 239 241 242 243 240 241 245 249 253 257 260 261 258 255 257 261 264 267 268 268 267 266 266 266 265 264
144 147 143 157 188 193 198 211 211 218 224 222 223 225 224 223 225 225 222 218 216 215 215 215 215 218 219 218 223 230 230 230 235 238 239 239 240 242 242 241 240 242 248 252 254 256 260 263 263 260 260 264 266 268 270 271 271 269 267 265 264 264 264
117 112 118 135 168 175 179 190 179 168 188 201 207 211 215 220 223 223 218 211 205 203 205 207 209 212 215 217 220 228 232 233 236 238 239 239 241 242 243 244 247 254 261 263 262 263 266 267 268 269 270 270 270 270 269 270 271 271 269 267 265 265 265
95 93 99 108 120 132 142 146 140 140 156 174 185 195 208 217 218 213 210 206 200 196 195 197 200 203 209 212 217 227 233 233 234 238 241 244 248 251 252 255 259 261 264 266 268 270 269 270 271 272 271 268 268 269 270 271 272 272 270 268 267 267 267
90 90 92 94 97 103 113 120 122 125 131 138 149 160 178 198 203 197 193 190 190 189 187 190 194 198 203 209 214 223 230 234 238 245 246 248 255 265 272 275 274 272 274 275 277 276 273 272 273 273 272 270 271 272 272 272 272 272 271 271 271 271 272
89 90 89 89 89 90 98 107 113 118 118 119 124 128 138 169 180 171 162 159 161 164 165 167 173 179 189 199 205 213 224 233 242 253 259 260 265 273 280 283 281 281 285 287 283 279 274 270 270 270 271 271 271 272 272 272 273 273 273 274 275 276 276
90 91 89 88 89 90 99 107 112 113 110 108 111 111 114 138 139 121 117 122 128 130 130 130 131 145 168 184 185 191 210 226 239 254 266 272 275 279 285 291 293 298 309 304 286 277 270 266 270 273 272 272 274 277 279 279 279 279 279 280 281 281 281
91 89 85 85 87 90 98 103 104 102 99 96 95 95 96 106 106 99 100 107 111 113 118 123 119 121 137 151 149 150 162 171 179 207 244 295 315 321 328 335 335 337 348 302 275 289 307 293 297 307 301 292 297 304 303 301 302 305 306 307 308 307 305
95 90 86 84 85 88 93 97 96 94 90 88 87 87 90 98 103 102 100 102 103 105 111 119 116 108 115 124 123 119 114 107 103 97 89 82 65 49 40 35 30 32 54 106 231 352 25 26 10 13 16 10 8 3 354 350 348 345 345 344 343 343 342
95 91 88 85 85 87 90 92 91 90 86 83 83 83 84 90 98 103 103 100 99 101 105 108 107 103 102 100 95 94 93 90 89 86 81 74 63 54 50 50 54 54 52 61 58 13 10 10 6 6 11 15 17 17 16 15 12 7 3 358 354 352 353
91 86 83 84 86 88 89 88 89 89 87 82 81 81 81 84 90 95 94 90 88 88 88 90 91 90 88 84 80 78 75 73 73 68 61 57 52 52 52 49 49 49 44 40 33 6 359 359 358 0 11 18 15 12 12 12 9 4 357 353 349 346 346
90 82 78 78 81 83 85 87 90 91 89 86 84 83 83 86 88 90 90 89 88 87 85 85 86 82 78 74 70 66 62 59 57 53 49 47 46 47 46 39 33 30 29 25 19 12 11 9 2 0 3 1 354 351 350 350 351 351 349 349 349 346 343
92 84 77 77 77 78 80 84 86 88 89 88 87 86 87 91 91 89 90 90 87 86 84 84 83 79 73 68 64 60 58 54 50 47 43 39 36 32 28 25 21 15 9 3 358 355 355 350 349 353 344 328 317 315 320 328 333 334 333 335 338 337 336
91 86 81 79 76 73 73 76 79 82 84 84 85 86 87 88 85 83 82 79 75 74 74 76 78 76 72 66 59 55 54 51 47 44 39 33 28 21 13 10 7 360 354 347 339 335 329 320 318 315 303 296 299 304 313 319 321 321 321 322 324 325 327
92 87 82 78 74 69 68 71 73 76 77 78 81 84 86 86 84 81 78 73 68 65 63 66 69 69 66 62 56 51 49 46 42 37 31 24 17 10 2 358 352 345 339 333 325 322 318 313 311 308 302 300 303 306 310 313 315 316 317 319 322 323 324
94 89 83 77 73 70 70 71 71 72 73 73 74 75 77 80 80 77 73 71 68 64 61 59 58 54 49 45 41 36 33 31 28 23 18 14 9 4 359 355 350 342 337 331 324 319 315 310 308 307 306 306 307 307 308 311 314 316 319 322 325 326 326
94 90 83 76 73 75 77 77 74 72 72 71 69 66 65 64 64 62 61 60 60 60 57 53 47 42 37 31 26 23 21 19 17 15 13 11 8 4 1 357 352 345 339 335 331 327 323 320 318 316 314 312 310 310 312 314 317 320 325 329 331 331 330
100 95 88 80 77 77 78 78 75 73 72 70 67 64 60 55 50 47 45 45 46 45 43 38 33 28 24 19 15 13 11 9 9 9 9 7 5 2 358 353 350 345 338 334 335 334 331 331 330 328 326 323 320 319 319 321 323 327 333 339 342 340 340